When you browse on this site, cookies collect data to enhance your experience and personalize the content and advertising you see.
Visit our Privacy Policy to learn more. By continuing to use the site, you agree to this use of cookies and data.
  • In Latvia
  • List of Countries
  • For 7 days
  • Water Temperature
  • Weather Map
  • Weather Widgets
  • user-avatar
    Login

    Hourly Weather Susol

    Today, 22 August, Thursday

    Time Temperature Precipitation Wind Pressure Humidity
    00:00 +28°C° 0 mm 6 mps 753 mmHg 44%
    01:00 +28°C° 0 mm 6 mps 753 mmHg 46%
    02:00 +27°C° 0 mm 5 mps 753 mmHg 48%
    03:00 +26°C° 0 mm 5 mps 753 mmHg 51%
    04:00 +26°C° 0 mm 5 mps 753 mmHg 53%
    05:00 +26°C° 0 mm 4 mps 753 mmHg 56%
    06:00 +25°C° 0 mm 4 mps 753 mmHg 59%
    07:00 +27°C° 0 mm 5 mps 753 mmHg 55%
    08:00 +29°C° 0 mm 5 mps 753 mmHg 50%
    09:00 +30°C° 0 mm 5 mps 753 mmHg 46%
    10:00 +33°C° 0 mm 5 mps 753 mmHg 40%
    11:00 +35°C° 0 mm 5 mps 753 mmHg 35%
    12:00 +37°C° 0 mm 5 mps 753 mmHg 30%
    13:00 +37°C° 0 mm 5 mps 753 mmHg 28%
    14:00 +39°C° 0 mm 5 mps 753 mmHg 26%
    15:00 +40°C° 0 mm 5 mps 753 mmHg 24%
    16:00 +39°C° 0 mm 5 mps 753 mmHg 26%
    17:00 +37°C° 0 mm 5 mps 752 mmHg 27%
    18:00 +37°C° 0 mm 5 mps 752 mmHg 29%
    19:00 +35°C° 0 mm 5 mps 753 mmHg 32%
    20:00 +33°C° 0 mm 5 mps 753 mmHg 35%
    21:00 +30°C° 0 mm 5 mps 753 mmHg 37%
    22:00 +29°C° 0 mm 5 mps 753 mmHg 40%
    23:00 +29°C° 0 mm 5 mps 753 mmHg 42%

    Tomorrow, 23 August, Friday

    Time Temperature Precipitation Wind Pressure Humidity
    00:00 +28°C° 0 mm 5 mps 753 mmHg 44%
    01:00 +27°C° 0 mm 5 mps 753 mmHg 46%
    02:00 +27°C° 0 mm 4 mps 753 mmHg 47%
    03:00 +26°C° 0 mm 4 mps 754 mmHg 48%
    04:00 +26°C° 0 mm 5 mps 753 mmHg 48%
    05:00 +26°C° 0 mm 5 mps 753 mmHg 48%
    06:00 +26°C° 0 mm 5 mps 753 mmHg 48%
    07:00 +27°C° 0 mm 5 mps 754 mmHg 45%
    08:00 +29°C° 0 mm 6 mps 754 mmHg 41%
    09:00 +30°C° 0 mm 6 mps 754 mmHg 37%
    10:00 +33°C° 0 mm 6 mps 754 mmHg 34%
    11:00 +35°C° 0 mm 6 mps 754 mmHg 31%
    12:00 +36°C° 0 mm 6 mps 754 mmHg 28%
    13:00 +36°C° 0 mm 6 mps 754 mmHg 28%
    14:00 +38°C° 0 mm 6 mps 754 mmHg 27%
    15:00 +38°C° 0 mm 6 mps 753 mmHg 27%
    16:00 +36°C° 0 mm 6 mps 753 mmHg 29%
    17:00 +36°C° 0 mm 6 mps 753 mmHg 31%
    18:00 +35°C° 0 mm 6 mps 753 mmHg 32%
    19:00 +33°C° 0 mm 6 mps 753 mmHg 35%
    20:00 +32°C° 0 mm 6 mps 754 mmHg 38%
    21:00 +30°C° 0 mm 5 mps 754 mmHg 40%
    22:00 +29°C° 0 mm 5 mps 754 mmHg 43%
    23:00 +28°C° 0 mm 5 mps 754 mmHg 45%

    Day after tomorrow, 24 August, Saturday

    Time Temperature Precipitation Wind Pressure Humidity
    00:00 +27°C° 0 mm 5 mps 754 mmHg 47%
    01:00 +27°C° 0 mm 5 mps 754 mmHg 50%
    02:00 +26°C° 0 mm 5 mps 753 mmHg 52%
    03:00 +25°C° 0 mm 5 mps 753 mmHg 55%
    04:00 +25°C° 0 mm 5 mps 753 mmHg 56%
    05:00 +25°C° 0 mm 5 mps 753 mmHg 58%
    06:00 +25°C° 0 mm 5 mps 753 mmHg 59%
    07:00 +26°C° 0 mm 6 mps 754 mmHg 55%
    08:00 +28°C° 0 mm 6 mps 754 mmHg 50%
    09:00 +29°C° 0 mm 6 mps 754 mmHg 46%
    10:00 +32°C° 0 mm 6 mps 754 mmHg 41%
    11:00 +34°C° 0 mm 6 mps 754 mmHg 37%
    12:00 +36°C° 0 mm 6 mps 753 mmHg 32%
    13:00 +36°C° 0 mm 6 mps 753 mmHg 31%
    14:00 +38°C° 0 mm 6 mps 753 mmHg 29%
    15:00 +39°C° 0 mm 6 mps 753 mmHg 28%
    16:00 +38°C° 0 mm 6 mps 753 mmHg 28%
    17:00 +38°C° 0 mm 6 mps 753 mmHg 29%
    18:00 +36°C° 0 mm 5 mps 753 mmHg 29%
    19:00 +35°C° 0 mm 5 mps 753 mmHg 33%
    20:00 +33°C° 0 mm 5 mps 752 mmHg 36%
    21:00 +30°C° 0 mm 5 mps 752 mmHg 39%
    22:00 +30°C° 0 mm 6 mps 752 mmHg 40%
    23:00 +29°C° 0 mm 6 mps 752 mmHg 41%

    25 August, Sunday

    Time Temperature Precipitation Wind Pressure Humidity
    00:00 +28°C° 0 mm 6 mps 752 mmHg 42%
    01:00 +28°C° 0 mm 6 mps 752 mmHg 44%
    02:00 +27°C° 0 mm 5 mps 752 mmHg 46%
    03:00 +26°C° 0 mm 5 mps 752 mmHg 48%
    04:00 +25°C° 0 mm 5 mps 752 mmHg 51%
    05:00 +25°C° 0 mm 5 mps 752 mmHg 54%
    06:00 +23°C° 0 mm 5 mps 752 mmHg 57%
    07:00 +26°C° 0 mm 5 mps 752 mmHg 52%
    08:00 +28°C° 0 mm 5 mps 752 mmHg 48%
    09:00 +29°C° 0 mm 4 mps 752 mmHg 43%
    10:00 +32°C° 0 mm 5 mps 752 mmHg 38%
    11:00 +33°C° 0 mm 5 mps 752 mmHg 33%
    12:00 +35°C° 0 mm 5 mps 752 mmHg 28%
    13:00 +35°C° 0 mm 5 mps 752 mmHg 29%
    14:00 +34°C° 0 mm 5 mps 752 mmHg 31%
    15:00 +34°C° 0 mm 5 mps 752 mmHg 32%
    16:00 +33°C° 0 mm 5 mps 752 mmHg 37%
    17:00 +30°C° 0 mm 6 mps 752 mmHg 42%
    18:00 +28°C° 0 mm 6 mps 753 mmHg 48%
    19:00 +27°C° 0 mm 6 mps 753 mmHg 51%
    20:00 +26°C° 0 mm 5 mps 753 mmHg 53%
    21:00 +25°C° 0 mm 5 mps 753 mmHg 56%
    22:00 +23°C° 0 mm 5 mps 753 mmHg 58%
    23:00 +23°C° 0 mm 4 mps 754 mmHg 59%

    26 August, Monday

    Time Temperature Precipitation Wind Pressure Humidity
    00:00 +22°C° 0 mm 4 mps 754 mmHg 61%
    01:00 +22°C° 0 mm 4 mps 754 mmHg 62%
    02:00 +22°C° 0 mm 5 mps 754 mmHg 64%
    03:00 +22°C° 0 mm 5 mps 754 mmHg 65%
    04:00 +21°C° 0 mm 5 mps 755 mmHg 66%
    05:00 +21°C° 0 mm 5 mps 755 mmHg 68%
    06:00 +21°C° 0 mm 4 mps 755 mmHg 69%
    07:00 +22°C° 0 mm 5 mps 756 mmHg 64%
    08:00 +25°C° 0 mm 5 mps 756 mmHg 60%
    09:00 +26°C° 0 mm 5 mps 756 mmHg 55%
    10:00 +27°C° 0 mm 5 mps 757 mmHg 51%
    11:00 +28°C° 0 mm 5 mps 757 mmHg 47%
    12:00 +29°C° 0 mm 6 mps 757 mmHg 44%
    13:00 +30°C° 0 mm 6 mps 757 mmHg 42%
    14:00 +30°C° 0 mm 6 mps 757 mmHg 40%
    15:00 +30°C° 0 mm 6 mps 757 mmHg 39%
    16:00 +30°C° 0 mm 6 mps 757 mmHg 37%
    17:00 +30°C° 0 mm 6 mps 757 mmHg 36%
    18:00 +30°C° 0 mm 6 mps 757 mmHg 34%
    19:00 +28°C° 0 mm 5 mps 757 mmHg 38%
    20:00 +26°C° 0 mm 5 mps 758 mmHg 41%
    21:00 +25°C° 0 mm 5 mps 758 mmHg 45%
    22:00 +23°C° 0 mm 5 mps 758 mmHg 45%
    23:00 +22°C° 0 mm 6 mps 758 mmHg 45%

    27 August, Tuesday

    Time Temperature Precipitation Wind Pressure Humidity
    00:00 +22°C° 0 mm 6 mps 759 mmHg 45%
    01:00 +21°C° 0 mm 6 mps 759 mmHg 47%
    02:00 +20°C° 0 mm 5 mps 759 mmHg 48%
    03:00 +20°C° 0 mm 5 mps 759 mmHg 50%
    04:00 +19°C° 0 mm 5 mps 759 mmHg 51%
    05:00 +17°C° 0 mm 5 mps 759 mmHg 52%
    06:00 +17°C° 0 mm 5 mps 759 mmHg 53%
    07:00 +19°C° 0 mm 5 mps 760 mmHg 50%
    08:00 +21°C° 0 mm 5 mps 760 mmHg 46%
    09:00 +23°C° 0 mm 6 mps 760 mmHg 43%
    10:00 +24°C° 0 mm 6 mps 760 mmHg 39%
    11:00 +26°C° 0 mm 6 mps 760 mmHg 34%
    12:00 +28°C° 0 mm 6 mps 760 mmHg 30%
    13:00 +28°C° 0 mm 6 mps 760 mmHg 28%
    14:00 +29°C° 0 mm 6 mps 760 mmHg 26%
    15:00 +29°C° 0 mm 6 mps 759 mmHg 24%
    16:00 +29°C° 0 mm 6 mps 759 mmHg 23%
    17:00 +28°C° 0 mm 6 mps 759 mmHg 23%
    18:00 +27°C° 0 mm 6 mps 759 mmHg 23%
    19:00 +25°C° 0 mm 5 mps 760 mmHg 24%
    20:00 +22°C° 0 mm 5 mps 760 mmHg 26%
    21:00 +20°C° 0 mm 4 mps 760 mmHg 27%
    22:00 +20°C° 0 mm 4 mps 760 mmHg 28%
    23:00 +19°C° 0 mm 4 mps 760 mmHg 30%
    Show more